Regional Weather Roundup
Issued by NWS

Home | Current Version | Previous Version | Graphics & Text | Print | Product List | Glossary On
Versions: 1 2 3 4 5 6 7 8 9 10 11 12 13 14 15 16 17 18 19 20 21 22 23 24 25 26 27 28 29 30 31 32 33 34 35 36 37 38 39 40 41 42 43 44 45 46 47 48 49 50
000
ASUS43 KLOT 241208
RWRIL

ILLINOIS REGIONAL WEATHER ROUNDUP
NATIONAL WEATHER SERVICE CHICAGO/ROMEOVILLE IL
700 AM CDT SAT SEP 24 2016

NOTE: "FAIR" INDICATES FEW OR NO CLOUDS BELOW 12,000 FEET WITH NO
SIGNIFICANT WEATHER AND/OR OBSTRUCTIONS TO VISIBILITY.

* THESE STATIONS ARE NOT UNDER NWS QUALITY CONTROL. THEY ALSO MAY NOT
  REPORT WEATHER SUCH AS PRECIPITATION OR FOG.

ILZ001-002-007-009-015-016-024-241300-
NORTHWEST ILLINOIS

CITY           SKY/WX    TMP DP  RH WIND       PRES   REMARKS
MOLINE         CLOUDY    68  65  90 E9        30.13R FOG
6HR MIN TEMP:  67; 6HR MAX TEMP:  68;

STERLING*      CLOUDY    65  64  97 E8        30.15R
SAVANNA*       CLOUDY    65  63  91 E5        30.15S
$$

ILZ003-004-008-010-011-017-018-241300-
NORTH CENTRAL ILLINOIS

CITY           SKY/WX    TMP DP  RH WIND       PRES   REMARKS
ROCKFORD       CLOUDY    65  61  87 E7        30.19R
6HR MIN TEMP:  65; 6HR MAX TEMP:  67;

FREEPORT*      CLOUDY    62  61  96 E3        30.19R
ROCHELLE*      CLOUDY    65  63  93 E6        30.17R
DE KALB*       CLOUDY    65  62  93 E8        30.18R
$$

ILZ005-006-012>014-019>023-241300-
NORTHEAST ILLINOIS

CITY           SKY/WX    TMP DP  RH WIND       PRES   REMARKS
CHICAGO-OHARE  CLOUDY    66  61  84 NE8       30.17R
6HR MIN TEMP:  66; 6HR MAX TEMP:  68;

CHICAGO-MIDWAY CLOUDY    68  62  81 E9        30.16S
6HR MIN TEMP:  68; 6HR MAX TEMP:  70;

AURORA         CLOUDY    67  63  87 E8        30.17R
6HR MIN TEMP:  67; 6HR MAX TEMP:  68;

LANSING*       CLOUDY    66  64  92 E6        30.17S
JOLIET*        CLOUDY    69  66  91 E5        30.16S FOG
WAUKEGAN       CLOUDY    64  60  87 NE6       30.19R
6HR MIN TEMP:  64; 6HR MAX TEMP:  66;

DUPAGE AIRPORT CLOUDY    66  61  84 E7        30.16S
6HR MIN TEMP:  66; 6HR MAX TEMP:  67;

KANKAKEE*      CLOUDY    67  66  96 E7        30.16R FOG
WHEELING       CLOUDY    65  61  87 E7        30.19R
6HR MIN TEMP:  65; 6HR MAX TEMP:  67;

MORRIS*        CLOUDY    67  65  92 E3        30.14S FOG
ROMEOVILLE*    CLOUDY    66  66  97 E7        30.16S FOG
NORTHERLY ISL    N/A     66  61  84 E9          N/A
$$

LMZ740>746-241300-
SOUTHERN LAKE MICHIGAN

STATION/POSITION SKY/WX   TEMP    WIND        PRES    VSBY  WAVE
                          AIR SEA DIR/SP/G                  HT/PER
                          (F)     (DEG/KT/KT) (MB)    (MI)  (FT/S)
SOUTHERN BUOY              63 72   90/ 16/ 19 1022.2R         3/ 5
WILMETTE HARBOR            65 64  110/  8/ 10   N/A           3/ 5
HARRISON CRIB              67     100/ 11/ 12   N/A
BURNHAM HARBOR             66      70/  8/  9   N/A
CALUMET HARBOR             66      60/  8/ 11 1021.0R
BURNS HARBOR               64      70/  8/ 11 1022.0R
MICHIGAN CITY              62      60/  6/  7   N/A
MICHIGAN CITY 6N           63 70   80/ 10/ 14   N/A           3/ 6
ST. JOSEPH                 61 70   70/ 10/ 12 1022.7R         2/ 5
$$

ILZ025>027-034>036-040-047-049-050-058-095>099-241300-
WEST-CENTRAL ILLINOIS

CITY           SKY/WX    TMP DP  RH WIND       PRES   REMARKS
QUINCY         CLEAR     67  65  93 E3        30.09R FOG
GALESBURG*     CLOUDY    66  66  98 E5        30.12S FOG
MACOMB*        FOG       62  62 100 CALM      30.13R VSB 1/4
JACKSONVILLE*    N/A     63  62  96 E3        30.11R FOG
PITTSFIELD*    CLEAR     64  63  97 CALM      30.12R
$$

ILZ028>032-037-038-041>044-048-051>054-059>061-241300-
CENTRAL ILLINOIS

CITY           SKY/WX    TMP DP  RH WIND       PRES   REMARKS
PONTIAC        CLOUDY    69  69 100 E8        30.15S FOG
BLOOMINGTON    CLOUDY    68  67  96 E7        30.15R FOG
DECATUR        FOG       63  62  97 NE3       30.13R VSB<1/4
PEORIA         CLOUDY    68  68 100 E8        30.13R FOG
6HR MIN TEMP:  67; 6HR MAX TEMP:  70;

LACON*         CLOUDY    68  67  97 E5        30.13R FOG
SPRINGFIELD    FOG       67  65  93 E5        30.12R VSB 1
6HR MIN TEMP:  66; 6HR MAX TEMP:  70;

TAYLORVILLE    CLEAR     63  63  99 CALM      30.12R FOG
6HR MIN TEMP:  61; 6HR MAX TEMP:  66;

$$

ILZ033-039-045-046-055>057-062-063-241300-
EAST-CENTRAL ILLINOIS

CITY           SKY/WX    TMP DP  RH WIND       PRES   REMARKS
CHAMPAIGN      FOG       66  65  96 NE8       30.13R VSB 1
RANTOUL*       CLOUDY    69  68  96 E6        30.14R FOG
MATTOON        CLEAR     64  62  93 CALM      30.11R FOG
PARIS*         CLEAR     64  64 100 CALM      30.13R FOG
$$

ILZ079-100>102-241300-
SOUTHWEST ILLINOIS

CITY           SKY/WX    TMP DP  RH WIND       PRES   REMARKS
ALTON          PTCLDY    63  63 100 CALM      30.11R FOG
BELLEVILLE     PTCLDY    64  64 100 CALM      30.09R
CAHOKIA*       CLEAR     66  64  93 CALM      30.10R FOG
SPARTA*        CLEAR     65  64  99 CALM      30.11R
$$

ILZ064>066-069>071-074>076-080>082-084>086-088>090-092>094-241300-
SOUTH-CENTRAL ILLINOIS

CITY           SKY/WX    TMP DP  RH WIND       PRES   REMARKS
CARBONDALE     FOG       64  64 100 CALM      30.11R VSB 1
6HR MIN TEMP:  63; 6HR MAX TEMP:  68;

CAIRO*         PTCLDY    65  65 100 CALM      30.10R FOG
EFFINGHAM*     CLEAR     63  63 100 CALM      30.13R FOG
MARION         PTCLDY    64  64 100 MISG      30.12R
MT. VERNON     CLEAR     61  55  82 CALM      30.12R
CENTRALIA*     FOG       63  63 100 CALM      30.11R VSB 1/2
SALEM*         FOG       64  63  96 CALM      30.12R VSB 1/2
METROPOLIS*    CLEAR     66  65  99 CALM      30.11R FOG
$$

ILZ067-068-072-073-078-083-087-091-241300-
SOUTHEAST ILLINOIS

CITY           SKY/WX    TMP DP  RH WIND       PRES   REMARKS
LAWRENCEVILLE  CLEAR     64  62  93 CALM      30.12R FOG
FLORA*         CLEAR     63  62  96 CALM      30.12R FOG
FAIRFIELD*       N/A     64  64 100 CALM      30.11R
HARRISBURG*    CLEAR     64  64  99 CALM      30.11R FOG
ROBINSON*      FOG       59  59 100 CALM      30.12R VSB<1/4
CARMI*         CLEAR     62  62 100 CALM      30.11R FOG
$$

ABBREVIATIONS USED IN REMARKS
   TC - TEMPERATURE IN CELSIUS
  WCI - WIND CHILL INDEX
   HX - HEAT INDEX
  VSB - VISIBILITY
$$





USA.gov is the U.S. government's official web portal to all federal, state and local government web resources and services.